Location: Cantaing
(50.1487°N, 3.1675°E)
Time: 21:39:26
(UTC+00:00)

Cosmos 2082 Rocket - Pass Details

Date: 16 April 2026
Orbit: 831 x 853 km, 71.0° (Epoch: 19 May)

Event Time Altitude Azimuth Distance (km) Brightness Sun altitude
Exits shadow 04:09:26 - 266° (W) 2,763 4.3 -7.3°
Reaches altitude 10° 04:10:24 10° 272° (W) 2,484 4.1 -7.1°
Maximum altitude 04:14:46 22° 322° (NW) 1,791 3.8 -6.5°
Drops below altitude 10° 04:19:09 10° 12° (NNE) 2,495 5.2 -5.8°
Sets 04:22:12 0° 27° (NNE) 3,433 6.3 -5.4°
